,,PA_Meas_PMT16A,,PR_Meas_QMR101_102,,RH_Meas_QMH101,,SR_Meas_QMS101,,TA_Meas_QMH101,,GenWind,,GenWind,
time,status,PA,status,PR,status,RH,status,SR,status,TA,status,DirAvg,status,SpdAvg,
2010-05-15, 00:00:04,VALID,915.638,VALID,0,VALID,95.8645,VALID,0,VALID,20.834,VALID,18,VALID,1.41953,
2010-05-15, 00:01:04,VALID,915.6,VALID,0,VALID,95.9941,VALID,0,VALID,20.8145,VALID,18,VALID,1.59531,
2010-05-15, 00:02:04,VALID,915.629,VALID,0,VALID,96.1008,VALID,0,VALID,20.8145,VALID,18,VALID,1.03828,
2010-05-15, 00:03:04,VALID,915.634,VALID,0,VALID,96.1846,VALID,0,VALID,20.8145,VALID,18,VALID,0.66875,
2010-05-15, 00:04:04,VALID,915.581,VALID,0.2,VALID,96.2609,VALID,0,VALID,20.7739,VALID,18,VALID,0.924219,
2010-05-15, 00:05:04,VALID,915.619,VALID,0,VALID,96.299,VALID,0,VALID,20.7934,VALID,18,VALID,0.673828,
2010-05-15, 00:06:04,VALID,915.598,VALID,0,VALID,96.3447,VALID,0,VALID,20.8145,VALID,43,VALID,1.64219,
2010-05-15, 00:07:04,VALID,915.634,VALID,0,VALID,96.3295,VALID,0,VALID,20.8129,VALID,43,VALID,0.261328,
2010-05-15, 00:08:05,VALID,915.606,VALID,0,VALID,96.299,VALID,0.107441,VALID,20.8324,VALID,43,VALID,0.0539063,
2010-05-15, 00:09:05,VALID,915.603,VALID,0,VALID,96.2685,VALID,0,VALID,20.8324,VALID,43,VALID,0.466406,
2010-05-15, 00:10:05,VALID,915.576,VALID,0,VALID,96.2761,VALID,0.107441,VALID,20.8519,VALID,43,VALID,0.909375,
2010-05-15, 00:11:05,VALID,915.584,VALID,0,VALID,96.2228,VALID,0,VALID,20.873,VALID,43,VALID,0.714453,
2010-05-15, 00:12:05,VALID,915.591,VALID,0,VALID,96.238,VALID,0,VALID,20.8714,VALID,43,VALID,0.221875,
2010-05-15, 00:13:05,VALID,915.598,VALID,0,VALID,96.2075,VALID,0,VALID,20.8714,VALID,43,VALID,0.387109,
2010-05-15, 00:14:05,VALID,915.59,VALID,0,VALID,96.1923,VALID,0,VALID,20.8714,VALID,43,VALID,0.596875,
2010-05-15, 00:15:05,VALID,915.551,VALID,0,VALID,96.2228,VALID,0,VALID,20.8519,VALID,42,VALID,1.27148,
2010-05-15, 00:16:05,VALID,915.512,VALID,0,VALID,96.177,VALID,0,VALID,20.8714,VALID,14,VALID,1.37891,
2010-05-15, 00:17:05,VALID,915.486,VALID,0,VALID,96.0703,VALID,0.107441,VALID,20.8535,VALID,355,VALID,1.61523,
2010-05-15, 00:18:05,VALID,915.529,VALID,0,VALID,95.9559,VALID,0.107441,VALID,20.891,VALID,346,VALID,0.792578,
2010-05-15, 00:19:05,VALID,915.46,VALID,0,VALID,95.8111,VALID,0.107441,VALID,20.9105,VALID,346,VALID,0.780078,
2010-05-15, 00:20:05,VALID,915.469,VALID,0,VALID,95.773,VALID,0.107441,VALID,20.9105,VALID,346,VALID,1.24805,
2010-05-15, 00:21:05,VALID,915.445,VALID,0,VALID,95.5595,VALID,0.107441,VALID,20.93,VALID,7,VALID,1.13711,
2010-05-15, 00:22:05,VALID,915.409,VALID,0,VALID,95.4147,VALID,0.107441,VALID,20.93,VALID,353,VALID,1.46953,
2010-05-15, 00:23:05,VALID,915.346,VALID,0,VALID,95.3003,VALID,0,VALID,20.93,VALID,4,VALID,2.05273,
2010-05-15, 00:24:05,VALID,915.308,VALID,0,VALID,95.2241,VALID,0.107441,VALID,20.9495,VALID,23,VALID,2.46367,
2010-05-15, 00:25:05,VALID,915.279,VALID,0,VALID,95.2012,VALID,0.107441,VALID,20.969,VALID,349,VALID,1.74609,
2010-05-15, 00:26:05,VALID,915.231,VALID,0,VALID,95.1555,VALID,0.107441,VALID,20.9495,VALID,356,VALID,1.89883,
2010-05-15, 00:27:05,VALID,915.249,VALID,0,VALID,95.1631,VALID,0.107441,VALID,20.9901,VALID,7,VALID,1.90469,
2010-05-15, 00:28:05,VALID,915.238,VALID,0,VALID,95.2698,VALID,0,VALID,20.9901,VALID,29,VALID,2.09258,
2010-05-15, 00:29:05,VALID,915.256,VALID,0,VALID,95.3613,VALID,0,VALID,20.9885,VALID,34,VALID,1.3832,
2010-05-15, 00:30:05,VALID,915.222,VALID,0,VALID,95.4375,VALID,0.107441,VALID,20.969,VALID,32,VALID,1.63242,
2010-05-15, 00:31:05,VALID,915.192,VALID,0,VALID,95.5595,VALID,0.107441,VALID,20.9495,VALID,27,VALID,1.31719,
2010-05-15, 00:32:05,VALID,915.192,VALID,0,VALID,95.7196,VALID,0,VALID,20.9495,VALID,9,VALID,1.81328,
2010-05-15, 00:33:05,VALID,915.195,VALID,0,VALID,95.7958,VALID,0.107441,VALID,20.9901,VALID,12,VALID,1.38086,
2010-05-15, 00:34:05,VALID,915.202,VALID,0,VALID,95.8797,VALID,0,VALID,20.969,VALID,8,VALID,1.85898,
2010-05-15, 00:35:05,VALID,915.152,VALID,0,VALID,95.9483,VALID,0.107441,VALID,20.9706,VALID,9,VALID,2.11484,
2010-05-15, 00:36:05,VALID,915.186,VALID,0,VALID,96.0322,VALID,0,VALID,20.9885,VALID,347,VALID,1.32305,
2010-05-15, 00:37:05,VALID,915.137,VALID,0,VALID,96.1008,VALID,0.107441,VALID,20.969,VALID,2,VALID,1.79805,
2010-05-15, 00:38:05,VALID,915.114,VALID,0,VALID,96.1236,VALID,0.107441,VALID,20.9885,VALID,5,VALID,1.76328,
2010-05-15, 00:39:05,VALID,915.096,VALID,0,VALID,96.2456,VALID,0.107441,VALID,21.008,VALID,4,VALID,1.51094,
2010-05-15, 00:40:05,VALID,915.108,VALID,0,VALID,96.2304,VALID,0.107441,VALID,21.0275,VALID,2,VALID,1.52891,
2010-05-15, 00:41:05,VALID,915.116,VALID,0,VALID,96.2151,VALID,0.107441,VALID,21.0275,VALID,329,VALID,0.885156,
2010-05-15, 00:42:05,VALID,915.02,VALID,0,VALID,96.2228,VALID,0,VALID,21.0486,VALID,12,VALID,1.45469,
2010-05-15, 00:43:05,VALID,915.1,VALID,0,VALID,96.1999,VALID,0.107441,VALID,21.0275,VALID,30,VALID,1.39141,
2010-05-15, 00:44:05,VALID,915.187,VALID,0,VALID,96.2685,VALID,0.107441,VALID,21.047,VALID,18,VALID,1.51602,
2010-05-15, 00:45:05,VALID,915.264,VALID,0,VALID,96.3066,VALID,0,VALID,21.047,VALID,346,VALID,0.707422,
2010-05-15, 00:46:05,VALID,915.245,VALID,0.2,VALID,96.3219,VALID,0.107441,VALID,21.047,VALID,349,VALID,1.74883,
2010-05-15, 00:47:05,VALID,915.267,VALID,0.2,VALID,96.3447,VALID,0,VALID,21.0275,VALID,23,VALID,1.7,
2010-05-15, 00:48:05,VALID,915.262,VALID,0,VALID,96.36,VALID,0.107441,VALID,21.008,VALID,28,VALID,1.43984,
2010-05-15, 00:49:05,VALID,915.26,VALID,0.2,VALID,96.3981,VALID,0,VALID,20.969,VALID,28,VALID,1.0625,
2010-05-15, 00:50:05,VALID,915.25,VALID,0,VALID,96.4286,VALID,0.107441,VALID,20.9495,VALID,29,VALID,1.19375,
2010-05-15, 00:51:05,VALID,915.259,VALID,0,VALID,96.4972,VALID,0.107441,VALID,20.9495,VALID,28,VALID,0.0878906,
2010-05-15, 00:52:05,VALID,915.296,VALID,0.2,VALID,96.5277,VALID,0,VALID,20.9495,VALID,208,VALID,1.06289,
2010-05-15, 00:53:05,VALID,915.315,VALID,0,VALID,96.6039,VALID,0.107441,VALID,20.9511,VALID,230,VALID,0.881641,
2010-05-15, 00:54:05,VALID,915.386,VALID,0,VALID,96.6497,VALID,0,VALID,20.9495,VALID,230,VALID,0.943359,
2010-05-15, 00:55:05,VALID,915.432,VALID,0,VALID,96.6878,VALID,0.107441,VALID,20.9495,VALID,258,VALID,2.23203,
2010-05-15, 00:56:05,VALID,915.443,VALID,0.2,VALID,96.7183,VALID,0,VALID,20.969,VALID,251,VALID,2.05078,
2010-05-15, 00:57:05,VALID,915.444,VALID,0,VALID,96.7411,VALID,0,VALID,20.969,VALID,261,VALID,3.47109,
2010-05-15, 00:58:05,VALID,915.54,VALID,0,VALID,96.7107,VALID,0,VALID,20.969,VALID,269,VALID,1.53594,
2010-05-15, 00:59:05,VALID,915.567,VALID,0.2,VALID,96.6802,VALID,0,VALID,20.9885,VALID,230,VALID,0.683984,
2010-05-15, 01:00:05,VALID,915.612,VALID,0,VALID,96.6802,VALID,0,VALID,20.9901,VALID,230,VALID,0.805078,
2010-05-15, 01:01:05,VALID,915.67,VALID,0,VALID,96.6344,VALID,0.107441,VALID,20.969,VALID,258,VALID,1.86797,
2010-05-15, 01:02:05,VALID,915.665,VALID,0,VALID,96.6802,VALID,0,VALID,20.93,VALID,311,VALID,1.34141,
2010-05-15, 01:03:05,VALID,915.627,VALID,0.2,VALID,96.7259,VALID,0,VALID,20.9706,VALID,54,VALID,0.637891,
2010-05-15, 01:04:05,VALID,915.607,VALID,0.2,VALID,96.6954,VALID,0,VALID,20.9706,VALID,55,VALID,0.248828,
2010-05-15, 01:05:05,VALID,915.653,VALID,0.4,VALID,96.7183,VALID,0,VALID,20.9316,VALID,55,VALID,0.289844,
2010-05-15, 01:06:05,VALID,915.575,VALID,0,VALID,96.7488,VALID,0,VALID,20.9511,VALID,69,VALID,0.790625,
2010-05-15, 01:07:05,VALID,915.574,VALID,0.2,VALID,96.7564,VALID,0.107441,VALID,20.93,VALID,39,VALID,1.84922,
2010-05-15, 01:08:05,VALID,915.63,VALID,0.2,VALID,96.7488,VALID,0,VALID,20.9316,VALID,336,VALID,2.17578,
2010-05-15, 01:09:05,VALID,915.612,VALID,0,VALID,96.7716,VALID,0,VALID,20.9105,VALID,28,VALID,3.85156,
2010-05-15, 01:10:05,VALID,915.688,VALID,0,VALID,96.7869,VALID,0.107441,VALID,20.891,VALID,48,VALID,0.913281,
2010-05-15, 01:11:05,VALID,915.695,VALID,0,VALID,96.7945,VALID,0,VALID,20.891,VALID,335,VALID,0.702734,
2010-05-15, 01:12:05,VALID,915.708,VALID,0,VALID,96.825,VALID,0,VALID,20.891,VALID,15,VALID,0.886328,
2010-05-15, 01:13:05,VALID,915.667,VALID,0,VALID,96.8479,VALID,0,VALID,20.891,VALID,59,VALID,1.11172,
2010-05-15, 01:14:05,VALID,915.708,VALID,0,VALID,96.825,VALID,0,VALID,20.8714,VALID,59,VALID,0.308594,
2010-05-15, 01:15:05,VALID,915.75,VALID,0,VALID,96.8326,VALID,0.107441,VALID,20.8714,VALID,59,VALID,0.353516,
2010-05-15, 01:16:05,VALID,915.779,VALID,0,VALID,96.8479,VALID,0.107441,VALID,20.8714,VALID,109,VALID,0.521875,
2010-05-15, 01:17:05,VALID,915.767,VALID,0,VALID,96.8707,VALID,0,VALID,20.8714,VALID,192,VALID,0.834375,
2010-05-15, 01:18:05,VALID,915.78,VALID,0.2,VALID,96.8707,VALID,0,VALID,20.8714,VALID,266,VALID,0.824609,
2010-05-15, 01:19:05,VALID,915.725,VALID,0.2,VALID,96.9165,VALID,0,VALID,20.8714,VALID,284,VALID,1.26484,
2010-05-15, 01:20:05,VALID,915.622,VALID,0,VALID,96.8784,VALID,0,VALID,20.8519,VALID,35,VALID,2.57344,
2010-05-15, 01:21:05,VALID,915.565,VALID,0,VALID,96.9089,VALID,0,VALID,20.873,VALID,23,VALID,1.72812,
2010-05-15, 01:22:05,VALID,915.585,VALID,0,VALID,96.9012,VALID,0,VALID,20.873,VALID,29,VALID,2.16953,
2010-05-15, 01:23:05,VALID,915.488,VALID,0,VALID,96.9165,VALID,0,VALID,20.8519,VALID,59,VALID,1.50078,
2010-05-15, 01:24:05,VALID,915.509,VALID,0,VALID,96.9394,VALID,0,VALID,20.8324,VALID,37,VALID,1.43633,
2010-05-15, 01:25:05,VALID,915.521,VALID,0,VALID,96.947,VALID,0.107441,VALID,20.8519,VALID,35,VALID,1.41562,
2010-05-15, 01:26:05,VALID,915.519,VALID,0,VALID,96.947,VALID,0,VALID,20.8535,VALID,28,VALID,1.58125,
2010-05-15, 01:27:05,VALID,915.521,VALID,0.2,VALID,96.9394,VALID,0.107441,VALID,20.8519,VALID,33,VALID,1.86211,
2010-05-15, 01:28:05,VALID,915.49,VALID,0,VALID,96.9317,VALID,0,VALID,20.873,VALID,25,VALID,1.60742,
2010-05-15, 01:29:05,VALID,915.493,VALID,0,VALID,96.9241,VALID,0,VALID,20.8519,VALID,30,VALID,1.96914,
2010-05-15, 01:30:05,VALID,915.478,VALID,0,VALID,96.9394,VALID,0,VALID,20.873,VALID,18,VALID,2.78359,
2010-05-15, 01:31:05,VALID,915.414,VALID,0,VALID,96.9317,VALID,0.107441,VALID,20.8535,VALID,10,VALID,1.57461,
2010-05-15, 01:32:05,VALID,915.395,VALID,0,VALID,96.9241,VALID,0,VALID,20.873,VALID,49,VALID,2.00938,
2010-05-15, 01:33:05,VALID,915.411,VALID,0,VALID,96.947,VALID,0,VALID,20.8519,VALID,338,VALID,1.86211,
2010-05-15, 01:34:05,VALID,915.401,VALID,0,VALID,96.9012,VALID,0,VALID,20.8714,VALID,326,VALID,0.964063,
2010-05-15, 01:35:05,VALID,915.337,VALID,0,VALID,96.9165,VALID,0,VALID,20.891,VALID,13,VALID,3.08437,
2010-05-15, 01:36:05,VALID,915.356,VALID,0,VALID,96.9089,VALID,0.107441,VALID,20.891,VALID,5,VALID,2.34453,
2010-05-15, 01:37:05,VALID,915.353,VALID,0,VALID,96.9165,VALID,0.107441,VALID,20.9089,VALID,23,VALID,0.996875,
2010-05-15, 01:38:05,VALID,915.321,VALID,0,VALID,96.9089,VALID,0.107441,VALID,20.969,VALID,27,VALID,2.99023,
2010-05-15, 01:39:05,VALID,915.342,VALID,0,VALID,96.8784,VALID,0.107441,VALID,20.9885,VALID,17,VALID,1.29492,
2010-05-15, 01:40:05,VALID,915.294,VALID,0,VALID,96.825,VALID,0.107441,VALID,20.9885,VALID,46,VALID,1.99336,
2010-05-15, 01:41:05,VALID,915.322,VALID,0,VALID,96.8326,VALID,0,VALID,21.008,VALID,318,VALID,1.68164,
2010-05-15, 01:42:05,VALID,915.252,VALID,0,VALID,96.8021,VALID,0.107441,VALID,20.9885,VALID,31,VALID,2.67148,
2010-05-15, 01:43:05,VALID,915.259,VALID,0,VALID,96.7945,VALID,0,VALID,21.0096,VALID,275,VALID,0.703906,
2010-05-15, 01:44:05,VALID,915.209,VALID,0,VALID,96.8174,VALID,0,VALID,21.0096,VALID,25,VALID,2.07539,
2010-05-15, 01:45:05,VALID,915.179,VALID,0,VALID,96.7945,VALID,0,VALID,21.0096,VALID,26,VALID,2.00703,
2010-05-15, 01:46:05,VALID,915.172,VALID,0,VALID,96.8098,VALID,0,VALID,21.0096,VALID,23,VALID,1.81016,
2010-05-15, 01:47:05,VALID,915.129,VALID,0,VALID,96.8479,VALID,0,VALID,21.0291,VALID,33,VALID,2.46484,
2010-05-15, 01:48:05,VALID,915.151,VALID,0,VALID,96.8555,VALID,0,VALID,21.0291,VALID,32,VALID,2.3418,
2010-05-15, 01:49:05,VALID,915.087,VALID,0,VALID,96.8784,VALID,0,VALID,21.0275,VALID,36,VALID,2.54766,
2010-05-15, 01:50:05,VALID,915.059,VALID,0,VALID,96.8555,VALID,0,VALID,21.0096,VALID,24,VALID,2.20117,
2010-05-15, 01:51:05,VALID,915.02,VALID,0,VALID,96.8631,VALID,0,VALID,21.008,VALID,24,VALID,2.29258,
2010-05-15, 01:52:05,VALID,915.022,VALID,0,VALID,96.8555,VALID,0,VALID,21.0096,VALID,18,VALID,1.49648,
2010-05-15, 01:53:05,VALID,914.994,VALID,0,VALID,96.886,VALID,0,VALID,21.0291,VALID,18,VALID,1.49453,
2010-05-15, 01:54:05,VALID,915.015,VALID,0,VALID,96.9012,VALID,0,VALID,21.0096,VALID,29,VALID,0.545313,
2010-05-15, 01:55:05,VALID,914.951,VALID,0,VALID,96.9012,VALID,0,VALID,21.0096,VALID,30,VALID,1.40352,
2010-05-15, 01:56:05,VALID,914.948,VALID,0,VALID,96.9012,VALID,0,VALID,21.0096,VALID,16,VALID,3.27031,
2010-05-15, 01:57:05,VALID,914.913,VALID,0,VALID,96.9165,VALID,0,VALID,21.0486,VALID,10,VALID,0.812891,
2010-05-15, 01:58:05,VALID,914.89,VALID,0,VALID,96.9089,VALID,0,VALID,21.0486,VALID,31,VALID,0.621484,
2010-05-15, 01:59:05,VALID,914.847,VALID,0,VALID,96.9317,VALID,0,VALID,21.0275,VALID,300,VALID,0.757031,
2010-05-15, 02:00:05,VALID,914.742,VALID,0,VALID,96.9546,VALID,0,VALID,21.0876,VALID,31,VALID,2.60117,
2010-05-15, 02:01:05,VALID,914.752,VALID,0,VALID,96.947,VALID,0,VALID,21.086,VALID,31,VALID,2.63906,
2010-05-15, 02:02:05,VALID,914.775,VALID,0,VALID,96.947,VALID,0,VALID,21.1071,VALID,8,VALID,1.54102,
2010-05-15, 02:03:05,VALID,914.752,VALID,0,VALID,96.9546,VALID,0,VALID,21.086,VALID,43,VALID,1.88008,
2010-05-15, 02:04:05,VALID,914.737,VALID,0,VALID,96.9546,VALID,0,VALID,21.1071,VALID,32,VALID,2.04102,
2010-05-15, 02:05:05,VALID,914.783,VALID,0,VALID,96.9698,VALID,0,VALID,21.1266,VALID,21,VALID,1.25781,
2010-05-15, 02:06:05,VALID,914.755,VALID,0,VALID,96.9622,VALID,0,VALID,21.1461,VALID,24,VALID,1.99336,
2010-05-15, 02:07:05,VALID,914.742,VALID,0,VALID,96.9546,VALID,0,VALID,21.1461,VALID,12,VALID,1.21836,
2010-05-15, 02:08:05,VALID,914.712,VALID,0,VALID,96.9622,VALID,0,VALID,21.1266,VALID,44,VALID,1.49141,
2010-05-15, 02:09:05,VALID,914.689,VALID,0,VALID,96.9622,VALID,0,VALID,21.1266,VALID,15,VALID,1.34141,
2010-05-15, 02:10:05,VALID,914.704,VALID,0,VALID,96.9927,VALID,0,VALID,21.1266,VALID,360,VALID,1.73945,
2010-05-15, 02:11:05,VALID,914.694,VALID,0,VALID,96.9927,VALID,0,VALID,21.1461,VALID,350,VALID,0.707422,
2010-05-15, 02:12:05,VALID,914.708,VALID,0,VALID,97.008,VALID,0,VALID,21.125,VALID,65,VALID,1.36602,
2010-05-15, 02:13:05,VALID,914.686,VALID,0,VALID,96.9927,VALID,0,VALID,21.1461,VALID,30,VALID,1.55234,
2010-05-15, 02:14:05,VALID,914.661,VALID,0,VALID,96.9851,VALID,0,VALID,21.1461,VALID,44,VALID,0.723828,
2010-05-15, 02:15:05,VALID,914.732,VALID,0,VALID,96.9927,VALID,0,VALID,21.1461,VALID,4,VALID,0.561328,
2010-05-15, 02:16:05,VALID,914.728,VALID,0,VALID,97.0232,VALID,0,VALID,21.1461,VALID,4,VALID,0.671484,
2010-05-15, 02:17:05,VALID,914.733,VALID,0,VALID,97.0385,VALID,0,VALID,21.125,VALID,42,VALID,1.58594,
2010-05-15, 02:18:05,VALID,914.761,VALID,0.2,VALID,97.0156,VALID,0,VALID,21.1461,VALID,35,VALID,0.0507813,
2010-05-15, 02:19:05,VALID,914.736,VALID,0,VALID,97.0308,VALID,0,VALID,21.1461,VALID,35,VALID,1.33242,
2010-05-15, 02:20:05,VALID,914.794,VALID,0,VALID,97.0385,VALID,0,VALID,21.1461,VALID,35,VALID,1.06992,
2010-05-15, 02:21:05,VALID,914.786,VALID,0.2,VALID,97.0461,VALID,0,VALID,21.1445,VALID,50,VALID,0.919922,
2010-05-15, 02:22:05,VALID,914.72,VALID,0.2,VALID,97.0613,VALID,0,VALID,21.1461,VALID,124,VALID,1.46328,
2010-05-15, 02:23:05,VALID,914.68,VALID,0,VALID,97.069,VALID,0,VALID,21.1461,VALID,10,VALID,0.884375,
2010-05-15, 02:24:05,VALID,914.656,VALID,0,VALID,97.0613,VALID,0,VALID,21.125,VALID,38,VALID,2.11523,
2010-05-15, 02:25:05,VALID,914.675,VALID,0,VALID,97.069,VALID,0,VALID,21.1461,VALID,20,VALID,1.65625,
2010-05-15, 02:26:05,VALID,914.76,VALID,0,VALID,97.0994,VALID,0,VALID,21.1657,VALID,255,VALID,0.456641,
2010-05-15, 02:27:05,VALID,914.769,VALID,0,VALID,97.0918,VALID,0,VALID,21.1657,VALID,309,VALID,0.806641,
2010-05-15, 02:28:05,VALID,914.785,VALID,0,VALID,97.0918,VALID,0,VALID,21.1657,VALID,115,VALID,0.882422,
2010-05-15, 02:29:05,VALID,914.852,VALID,0,VALID,97.0994,VALID,0,VALID,21.1461,VALID,264,VALID,0.493359,
2010-05-15, 02:30:05,VALID,914.833,VALID,0,VALID,97.1071,VALID,0,VALID,21.1445,VALID,257,VALID,1.38359,
2010-05-15, 02:31:05,VALID,914.825,VALID,0,VALID,97.0994,VALID,0,VALID,21.125,VALID,247,VALID,1.96289,
2010-05-15, 02:32:05,VALID,914.784,VALID,0,VALID,97.1071,VALID,0,VALID,21.125,VALID,256,VALID,0.464063,
2010-05-15, 02:33:05,VALID,914.741,VALID,0,VALID,97.1452,VALID,0,VALID,21.1461,VALID,256,VALID,0.860937,
2010-05-15, 02:34:05,VALID,914.755,VALID,0,VALID,97.1376,VALID,0,VALID,21.1461,VALID,330,VALID,0.803516,
2010-05-15, 02:35:05,VALID,914.751,VALID,0,VALID,97.1147,VALID,0,VALID,21.125,VALID,19,VALID,0.698047,
2010-05-15, 02:36:05,VALID,914.754,VALID,0,VALID,97.1299,VALID,0,VALID,21.1461,VALID,65,VALID,1.38477,
2010-05-15, 02:37:05,VALID,914.725,VALID,0,VALID,97.1376,VALID,0,VALID,21.1461,VALID,38,VALID,0.151172,
2010-05-15, 02:38:05,VALID,914.761,VALID,0,VALID,97.1376,VALID,0,VALID,21.125,VALID,38,VALID,0.137891,
2010-05-15, 02:39:05,VALID,914.772,VALID,0,VALID,97.1452,VALID,0,VALID,21.1657,VALID,38,VALID,0.489453,
2010-05-15, 02:40:05,VALID,914.665,VALID,0,VALID,97.1528,VALID,0,VALID,21.125,VALID,38,VALID,1.10859,
2010-05-15, 02:41:05,VALID,914.69,VALID,0,VALID,97.1452,VALID,0,VALID,21.125,VALID,39,VALID,0.998438,
2010-05-15, 02:42:05,VALID,914.694,VALID,0,VALID,97.1681,VALID,0,VALID,21.1461,VALID,10,VALID,1.38437,
2010-05-15, 02:43:05,VALID,914.658,VALID,0,VALID,97.1604,VALID,0,VALID,21.1657,VALID,14,VALID,0.385547,
2010-05-15, 02:44:05,VALID,914.615,VALID,0,VALID,97.1604,VALID,0.107441,VALID,21.1445,VALID,19,VALID,1.18398,
2010-05-15, 02:45:05,VALID,914.612,VALID,0,VALID,97.1833,VALID,0,VALID,21.1445,VALID,19,VALID,0.453516,
2010-05-15, 02:46:05,VALID,914.526,VALID,0,VALID,97.1909,VALID,0,VALID,21.1445,VALID,311,VALID,0.725,
2010-05-15, 02:47:05,VALID,914.538,VALID,0,VALID,97.1757,VALID,0,VALID,21.1657,VALID,20,VALID,1.58086,
2010-05-15, 02:48:05,VALID,914.54,VALID,0,VALID,97.1681,VALID,0,VALID,21.164,VALID,45,VALID,1.2082,
2010-05-15, 02:49:05,VALID,914.537,VALID,0,VALID,97.1833,VALID,0,VALID,21.1445,VALID,349,VALID,0.716797,
2010-05-15, 02:50:05,VALID,914.473,VALID,0,VALID,97.1986,VALID,0,VALID,21.1445,VALID,20,VALID,1.08047,
2010-05-15, 02:51:05,VALID,914.585,VALID,0,VALID,97.1757,VALID,0,VALID,21.1445,VALID,22,VALID,0.626562,
2010-05-15, 02:52:04,VALID,914.612,VALID,0,VALID,97.1833,VALID,0.107441,VALID,21.164,VALID,113,VALID,1.18438,
2010-05-15, 02:53:04,VALID,914.586,VALID,0,VALID,97.1681,VALID,0,VALID,21.1836,VALID,205,VALID,0.025,
2010-05-15, 02:54:04,VALID,914.555,VALID,0,VALID,97.1757,VALID,0,VALID,21.1836,VALID,205,VALID,0.233984,
2010-05-15, 02:55:04,VALID,914.551,VALID,0,VALID,97.1833,VALID,0,VALID,21.164,VALID,205,VALID,0.734375,
2010-05-15, 02:56:04,VALID,914.502,VALID,0,VALID,97.1909,VALID,0,VALID,21.164,VALID,263,VALID,1.24063,
2010-05-15, 02:57:04,VALID,914.522,VALID,0,VALID,97.1909,VALID,0,VALID,21.164,VALID,273,VALID,1.22891,
2010-05-15, 02:58:04,VALID,914.491,VALID,0,VALID,97.1909,VALID,0,VALID,21.1836,VALID,12,VALID,1.6375,
2010-05-15, 02:59:04,VALID,914.486,VALID,0,VALID,97.1909,VALID,0.107441,VALID,21.1836,VALID,4,VALID,1.40547,
2010-05-15, 03:00:04,VALID,914.461,VALID,0,VALID,97.1909,VALID,0,VALID,21.164,VALID,4,VALID,0.708203,
2010-05-15, 03:01:04,VALID,914.548,VALID,0,VALID,97.1833,VALID,0,VALID,21.164,VALID,4,VALID,0.319922,
2010-05-15, 03:02:04,VALID,914.465,VALID,0,VALID,97.1757,VALID,0.107441,VALID,21.1836,VALID,4,VALID,0.408984,
2010-05-15, 03:03:04,VALID,914.451,VALID,0,VALID,97.1909,VALID,0.107441,VALID,21.2031,VALID,307,VALID,0.834375,
2010-05-15, 03:04:04,VALID,914.437,VALID,0,VALID,97.1909,VALID,0,VALID,21.2047,VALID,251,VALID,0.239453,
2010-05-15, 03:05:04,VALID,914.437,VALID,0,VALID,97.2062,VALID,0,VALID,21.1852,VALID,251,VALID,0.294531,
2010-05-15, 03:06:04,VALID,914.436,VALID,0,VALID,97.1833,VALID,0,VALID,21.164,VALID,251,VALID,0.889063,
2010-05-15, 03:07:04,VALID,914.456,VALID,0,VALID,97.1833,VALID,0,VALID,21.164,VALID,251,VALID,0.490234,
2010-05-15, 03:08:04,VALID,914.417,VALID,0,VALID,97.1986,VALID,0.107441,VALID,21.2047,VALID,250,VALID,0.930078,
2010-05-15, 03:09:04,VALID,914.401,VALID,0,VALID,97.1833,VALID,0,VALID,21.164,VALID,250,VALID,0.240234,
2010-05-15, 03:10:04,VALID,914.404,VALID,0,VALID,97.1986,VALID,0,VALID,21.1836,VALID,232,VALID,0.854688,
2010-05-15, 03:11:04,VALID,914.466,VALID,0,VALID,97.1986,VALID,0,VALID,21.1852,VALID,232,VALID,0.408594,
2010-05-15, 03:12:04,VALID,914.39,VALID,0,VALID,97.1909,VALID,0,VALID,21.164,VALID,21,VALID,0.792188,
2010-05-15, 03:13:04,VALID,914.309,VALID,0,VALID,97.1757,VALID,0,VALID,21.164,VALID,100,VALID,1.15313,
2010-05-15, 03:14:04,VALID,914.312,VALID,0,VALID,97.1909,VALID,0,VALID,21.2063,VALID,13,VALID,0.899219,
2010-05-15, 03:15:04,VALID,914.279,VALID,0,VALID,97.1986,VALID,0,VALID,21.1852,VALID,26,VALID,1.33555,
2010-05-15, 03:16:04,VALID,914.298,VALID,0,VALID,97.1909,VALID,0,VALID,21.1852,VALID,21,VALID,0.982031,
2010-05-15, 03:17:04,VALID,914.223,VALID,0,VALID,97.2062,VALID,0,VALID,21.1836,VALID,21,VALID,1.72227,
2010-05-15, 03:18:04,VALID,914.248,VALID,0,VALID,97.1986,VALID,0,VALID,21.2047,VALID,34,VALID,1.44336,
2010-05-15, 03:19:04,VALID,914.295,VALID,0,VALID,97.1833,VALID,0,VALID,21.1852,VALID,355,VALID,0.884766,
2010-05-15, 03:20:04,VALID,914.301,VALID,0,VALID,97.1909,VALID,0,VALID,21.1657,VALID,47,VALID,0.826563,
2010-05-15, 03:21:04,VALID,914.319,VALID,0,VALID,97.1986,VALID,0,VALID,21.2047,VALID,47,VALID,0.467578,
2010-05-15, 03:22:04,VALID,914.378,VALID,0,VALID,97.1909,VALID,0,VALID,21.2047,VALID,47,VALID,0.753906,
2010-05-15, 03:23:04,VALID,914.372,VALID,0,VALID,97.1833,VALID,0,VALID,21.2047,VALID,24,VALID,1.62305,
2010-05-15, 03:24:04,VALID,914.45,VALID,0,VALID,97.1909,VALID,0,VALID,21.2047,VALID,297,VALID,0.804297,
2010-05-15, 03:25:04,VALID,914.161,VALID,0,VALID,97.1986,VALID,0,VALID,21.2047,VALID,37,VALID,3.38633,
2010-05-15, 03:26:04,VALID,914.354,VALID,0.2,VALID,97.2062,VALID,0,VALID,21.1657,VALID,151,VALID,1.29414,
2010-05-15, 03:27:04,VALID,914.403,VALID,0.2,VALID,97.1909,VALID,0,VALID,21.0876,VALID,273,VALID,2.23906,
2010-05-15, 03:28:04,VALID,914.409,VALID,0,VALID,97.1757,VALID,0,VALID,21.0876,VALID,189,VALID,1.75352,
2010-05-15, 03:29:04,VALID,914.363,VALID,0.2,VALID,97.1528,VALID,0,VALID,21.0665,VALID,254,VALID,2.5207,
2010-05-15, 03:30:04,VALID,914.374,VALID,0.4,VALID,97.1757,VALID,0,VALID,21.047,VALID,241,VALID,0.478516,
2010-05-15, 03:31:04,VALID,914.401,VALID,0,VALID,97.1909,VALID,0,VALID,21.1071,VALID,28,VALID,1.07383,
2010-05-15, 03:32:04,VALID,914.39,VALID,0.2,VALID,97.1604,VALID,0,VALID,21.047,VALID,315,VALID,0.962109,
2010-05-15, 03:33:04,VALID,914.401,VALID,0,VALID,97.1909,VALID,0,VALID,21.0665,VALID,225,VALID,0.999219,
2010-05-15, 03:34:04,VALID,914.384,VALID,0,VALID,97.1757,VALID,0,VALID,21.0665,VALID,58,VALID,1.7707,
2010-05-15, 03:35:04,VALID,914.388,VALID,0,VALID,97.1909,VALID,0,VALID,21.047,VALID,144,VALID,1.00937,
2010-05-15, 03:36:04,VALID,914.216,VALID,0,VALID,97.1986,VALID,0,VALID,21.0681,VALID,17,VALID,3.88008,
2010-05-15, 03:37:04,VALID,914.38,VALID,0,VALID,97.1909,VALID,0,VALID,21.0275,VALID,260,VALID,2.82813,
2010-05-15, 03:38:04,VALID,914.324,VALID,0,VALID,97.1909,VALID,0,VALID,21.008,VALID,240,VALID,2.19414,
2010-05-15, 03:39:04,VALID,914.421,VALID,0,VALID,97.1909,VALID,0,VALID,21.008,VALID,31,VALID,1.81641,
2010-05-15, 03:40:04,VALID,914.391,VALID,0,VALID,97.1909,VALID,0,VALID,21.008,VALID,20,VALID,2.1043,
2010-05-15, 03:41:04,VALID,914.422,VALID,0,VALID,97.2138,VALID,0.107441,VALID,21.008,VALID,1,VALID,0.883594,
2010-05-15, 03:42:04,VALID,914.391,VALID,0,VALID,97.1986,VALID,0,VALID,21.008,VALID,271,VALID,1.39844,
2010-05-15, 03:43:04,VALID,914.382,VALID,0,VALID,97.1986,VALID,0,VALID,20.9885,VALID,53,VALID,2.24727,
2010-05-15, 03:44:04,VALID,914.399,VALID,0,VALID,97.2062,VALID,0,VALID,20.969,VALID,50,VALID,2.02813,